EHI
0 0 0 0 0 0 0 0 0 0 0 0 0 0 0 0 0 0 0 1 5 18 31 35 35 33 30 29 28 26 22 18 13 11 7 4 1 2 3 5 6 6 6 5 4 3 3 3 2
0 0 0 0 0 0 0 0 0 0 0 0 0 0 0 0 0 0 0 1 7 18 30 35 35 33 30 28 26 25 22 16 13 12 9 5 2 1 1 3 6 6 6 5 4 3 3 3 3
0 0 0 0 0 0 0 0 0 0 0 0 0 0 0 1 1 0 0 3 9 19 28 35 37 34 29 26 25 24 20 14 12 14 13 8 3 1 0 2 5 6 6 6 5 4 4 4 4
0 0 0 0 0 0 0 0 0 0 0 0 0 0 0 1 2 1 1 5 13 21 27 34 38 36 31 27 25 23 19 14 13 14 14 11 6 2 0 1 3 5 6 6 6 6 6 5 4
0 0 0 0 0 0 0 0 0 0 0 0 0 0 0 1 2 3 4 10 18 25 28 32 36 37 33 28 25 21 17 15 14 14 13 11 8 5 2 2 3 4 5 6 6 6 6 5 4
0 0 0 0 0 0 0 0 0 0 0 0 0 1 1 2 4 6 9 16 24 29 30 31 33 34 31 27 23 19 17 17 17 15 12 10 8 6 5 3 4 4 4 5 6 6 6 5 4
0 0 0 0 0 0 0 0 0 0 0 0 0 2 3 4 6 9 14 21 27 30 31 29 28 27 25 24 21 18 17 17 17 14 11 8 7 7 6 5 5 4 4 4 5 6 6 5 4
0 0 0 0 0 0 0 0 0 0 0 0 0 1 3 6 9 14 18 24 29 30 29 26 24 22 21 20 16 15 16 15 14 11 9 7 6 6 6 5 4 4 3 3 4 5 6 5 4
0 0 0 0 0 0 0 0 0 0 0 1 1 1 2 6 11 15 20 24 28 28 26 24 23 22 20 16 12 11 12 11 9 7 5 6 5 5 4 2 2 3 3 3 3 4 5 4 2
0 0 0 0 0 0 0 0 0 0 0 1 1 1 3 6 10 14 17 20 22 23 22 22 21 19 17 14 11 11 11 9 7 5 4 4 5 5 4 3 2 2 2 1 1 2 3 2 1
0 0 0 0 0 0 0 0 0 0 0 1 1 1 3 6 7 9 11 13 16 17 18 19 18 14 13 13 12 13 13 11 9 7 4 4 6 6 6 6 5 3 2 2 2 3 2 1 1
0 0 0 0 0 0 0 0 0 0 0 0 0 1 2 4 4 5 6 8 11 12 12 14 13 11 11 12 13 12 12 12 10 8 6 5 6 6 7 8 8 6 4 3 4 5 3 1 1
0 0 0 0 0 0 0 0 0 0 0 0 0 0 1 2 2 2 2 4 6 7 8 10 11 11 11 12 12 10 9 9 9 8 6 5 5 5 6 7 8 7 4 3 4 4 2 1 1
0 0 0 0 0 0 0 0 0 0 0 0 0 0 0 0 1 1 2 2 3 3 4 7 10 10 11 12 11 9 7 7 7 5 4 4 4 5 5 6 6 6 4 3 2 2 1 1 1
0 0 0 0 0 0 0 0 1 1 1 0 0 0 0 0 0 0 1 2 1 0 2 4 8 9 10 10 9 7 6 6 5 4 3 3 4 5 5 5 6 6 6 5 3 1 0 0 1
0 0 0 0 0 0 0 0 1 1 1 0 0 0 0 0 0 0 1 2 1 0 1 3 5 7 8 7 7 7 6 5 4 3 3 3 3 4 4 5 6 6 7 6 4 2 0 0 0
0 0 0 0 0 0 0 0 0 0 0 0 1 1 0 0 0 0 1 2 2 1 1 2 4 5 5 5 6 6 6 5 4 3 3 3 3 3 3 4 5 5 5 5 3 1 0 0 0
0 0 0 0 0 0 0 0 0 0 0 1 2 2 1 0 0 0 1 2 2 1 1 2 3 3 3 4 5 6 6 5 4 3 3 2 2 2 3 3 3 3 2 2 2 1 0 0 0
0 0 0 0 0 0 0 0 0 0 0 1 2 2 1 0 0 0 1 2 2 1 1 2 2 1 1 3 4 4 3 4 3 2 1 1 1 1 2 2 1 1 0 1 1 0 0 0 0
0 0 0 0 0 0 0 0 0 0 0 0 1 1 0 0 0 0 1 2 2 2 1 1 1 0 0 1 3 2 2 2 2 1 0 0 1 1 1 1 0 0 0 0 0 0 0 0 0
0 0 0 0 0 0 0 0 0 0 0 0 0 0 0 0 0 0 0 1 1 2 2 1 0 0 0 1 2 2 2 1 1 0 0 0 0 0 0 0 0 0 0 0 0 0 0 0 0
0 0 0 0 0 0 0 0 0 0 0 0 0 0 0 0 0 0 0 0 0 1 1 1 0 0 0 0 1 2 2 1 0 0 0 0 0 0 0 0 0 0 0 0 0 0 0 0 0
0 0 0 0 0 0 0 0 0 0 0 0 0 0 1 0 0 0 0 0 0 0 0 0 0 0 0 0 0 1 1 0 0 0 0 0 0 0 0 0 0 0 0 0 0 0 0 0 0
0 0 0 0 0 0 0 0 0 0 0 0 0 0 0 0 0 0 0 0 0 0 0 0 0 0 0 0 0 0 0 0 0 0 0 0 0 0 0 0 0 0 0 0 0 0 0 0 0
0 0 0 0 0 0 0 0 0 0 0 0 0 0 0 0 0 0 0 0 0 0 0 0 0 0 0 0 0 0 0 0 0 0 0 0 0 0 0 0 0 0 0 0 0 0 0 0 0
0 0 0 0 0 0 0 0 0 0 0 0 0 0 0 0 0 0 0 0 0 0 0 0 0 0 0 0 0 0 0 0 0 0 0 0 0 0 0 0 0 0 0 0 0 0 0 0 0
0 0 0 0 0 0 0 0 0 0 0 0 0 0 0 0 0 0 0 0 0 0 0 0 0 0 0 0 0 0 0 0 0 0 0 0 0 0 0 0 0 0 0 0 0 0 0 0 0
0 0 0 0 0 0 0 0 0 0 0 0 0 0 0 0 0 0 0 0 0 0 0 0 0 0 0 0 0 1 0 0 0 0 0 0 0 0 0 0 0 0 0 0 0 0 0 0 0
0 0 0 0 0 0 0 0 0 0 0 0 0 0 0 0 0 0 0 0 0 0 0 0 0 0 0 0 0 0 0 0 0 0 0 0 0 0 0 0 0 0 0 0 0 0 0 0 0
0 0 0 0 0 0 0 0 0 0 0 0 0 0 0 0 0 0 0 0 0 0 0 0 0 0 0 0 0 0 0 0 0 0 0 0 0 0 0 0 0 0 0 0 0 0 0 0 0
Wind_Speed
4 3 2 4 6 7 13 11 8 7 7 5 4 6 7 8 5 0 4 4 7 10 11 12 9 10 11 10 10 10 11 11 11 10 11 11 11 11 11 11 10 10 10 10 10 10 10 10 11
3 2 3 5 8 11 12 11 11 9 5 4 5 6 7 7 2 2 2 4 8 10 11 12 10 10 10 11 11 10 10 11 11 11 11 11 11 10 10 10 10 10 9 9 10 10 10 10 10
3 3 4 5 9 14 12 8 9 7 5 5 5 6 6 3 2 1 2 6 8 9 10 11 10 10 10 11 11 11 10 10 11 11 10 10 10 10 10 10 10 10 10 10 10 10 10 10 10
3 4 4 8 15 14 12 6 5 7 6 5 6 5 4 0 1 1 3 7 9 9 9 11 9 10 10 11 11 11 10 10 10 11 10 10 10 10 9 9 10 10 10 10 9 9 10 10 10
3 4 8 11 16 13 10 8 6 7 7 6 7 6 4 2 1 1 4 7 8 8 8 10 9 10 10 10 11 10 10 10 10 10 10 10 10 10 9 9 9 9 9 9 9 9 10 10 10
4 5 9 14 16 14 11 9 9 9 8 6 6 7 4 2 1 2 4 6 8 8 8 10 9 9 9 10 10 10 10 10 10 9 9 9 9 9 9 9 9 9 9 9 9 9 9 10 10
5 6 12 15 14 14 11 9 10 10 9 7 5 6 5 3 2 3 4 5 6 7 8 8 9 9 8 8 9 9 9 9 10 9 9 9 9 9 9 9 9 8 9 9 9 9 9 9 9
4 5 11 13 14 13 8 8 7 8 7 4 4 6 5 2 2 3 4 4 5 5 6 8 8 8 9 8 8 8 8 8 9 8 8 8 8 8 8 8 8 8 8 8 9 9 9 8 8
4 7 12 13 12 9 6 7 6 5 6 6 5 5 2 2 4 4 4 4 4 4 5 6 7 7 7 7 8 7 8 7 8 8 7 6 6 7 6 7 7 8 8 8 8 8 8 7 8
5 9 11 8 8 6 5 6 6 7 9 8 7 5 3 4 6 7 7 7 6 6 5 5 6 6 6 5 6 5 5 6 6 6 7 5 4 4 5 7 7 8 8 7 6 6 6 4 4
4 7 6 7 6 5 6 6 6 8 10 10 9 7 5 7 7 8 8 7 7 6 5 5 5 6 6 5 4 3 3 4 5 6 6 5 4 4 4 4 5 5 5 5 5 4 3 3 3
5 7 7 6 5 6 7 7 8 10 10 7 7 7 7 9 9 9 8 8 6 6 5 5 5 5 5 5 4 4 4 3 3 5 6 5 3 3 4 3 4 3 3 3 3 2 3 3 3
8 7 7 7 6 6 6 9 9 11 9 7 6 7 8 9 8 7 7 7 7 6 5 5 5 5 5 4 4 4 4 4 4 4 5 5 4 4 4 3 3 3 3 3 3 3 4 3 3
5 6 7 7 7 6 8 10 10 10 6 7 7 8 9 9 8 7 7 6 6 6 5 5 5 5 5 4 4 3 4 4 4 4 5 5 4 4 4 3 3 3 3 3 3 4 3 2 3
5 7 7 7 8 6 7 11 11 9 6 8 8 8 8 8 8 7 7 6 6 6 5 4 5 5 6 5 5 3 3 4 4 4 5 5 5 5 4 3 3 3 3 4 3 4 3 3 3
5 7 7 5 6 6 8 13 8 7 8 9 8 7 7 8 7 6 5 5 5 5 5 4 3 5 5 4 4 3 3 4 4 4 4 5 5 5 4 3 3 4 3 3 3 3 3 3 3
4 6 8 7 5 5 8 12 9 7 9 9 8 7 7 6 6 5 4 4 4 5 5 4 3 4 5 4 3 4 3 3 3 4 4 5 5 5 4 3 3 4 3 3 3 3 3 3 3
5 7 8 8 5 7 11 13 10 9 9 9 9 8 7 6 5 4 3 3 3 4 5 5 3 3 4 4 3 3 3 3 3 4 4 5 5 5 4 3 4 4 4 4 3 4 3 2 2
7 8 10 9 6 8 12 13 11 9 8 8 8 7 7 5 4 3 2 2 2 3 4 4 4 4 3 4 4 4 3 3 3 3 5 5 5 5 4 3 4 4 4 4 4 3 4 3 2
7 9 10 8 6 7 10 12 9 7 8 6 6 6 6 5 3 3 3 2 3 3 3 4 4 4 4 3 4 3 3 3 3 3 4 5 5 5 4 5 4 4 4 4 5 4 3 2 2
7 8 8 8 8 7 8 10 8 5 6 5 5 5 5 4 4 3 3 3 3 3 3 3 4 4 4 4 3 3 2 2 2 3 3 4 5 5 5 5 4 4 4 4 5 5 4 3 3
7 5 7 7 6 4 5 6 6 6 6 6 6 5 5 4 3 3 3 3 3 2 2 3 4 4 4 4 4 6 5 4 4 3 4 4 5 5 5 5 5 4 4 5 5 4 4 4 3
6 6 7 7 6 6 6 7 5 5 7 7 6 6 5 4 3 2 2 2 2 2 2 3 3 3 3 3 4 5 5 3 3 4 5 4 4 5 5 5 5 5 4 5 5 4 5 4 3
5 5 4 4 4 6 5 6 5 4 7 7 6 5 5 4 3 2 1 1 1 1 1 2 3 3 3 3 4 5 6 5 5 5 5 4 3 4 5 5 5 5 4 5 5 5 5 4 4
4 2 2 3 4 4 3 6 6 3 4 6 5 5 4 4 3 2 1 1 1 2 2 1 2 3 3 3 4 5 5 6 7 6 5 5 4 4 5 5 5 5 4 5 5 5 5 5 5
3 3 3 3 3 3 3 6 3 2 3 3 3 3 2 2 2 2 2 2 2 2 2 2 2 2 3 3 4 4 4 4 4 5 5 5 4 4 4 5 5 5 5 5 5 5 5 4 4
2 2 2 3 2 3 4 4 4 2 3 3 3 2 1 1 1 2 2 2 2 2 2 2 3 2 2 3 4 4 4 4 4 4 4 4 4 3 4 4 5 5 5 5 5 4 5 4 4
3 1 2 3 3 4 4 5 2 4 5 6 5 4 4 2 1 1 1 1 1 1 1 1 2 2 2 3 3 2 3 4 4 4 5 5 4 4 4 4 5 5 5 6 5 5 5 5 4
2 2 2 2 3 4 4 1 3 3 4 5 6 6 4 4 2 1 0 0 0 0 0 0 0 1 1 2 2 2 2 3 3 3 4 4 4 5 5 5 5 5 6 6 5 5 6 5 5
3 2 3 3 2 3 4 2 4 3 4 5 6 6 4 3 3 2 1 1 1 1 1 0 0 0 1 1 2 2 2 2 3 3 4 4 4 4 4 5 5 5 5 6 6 6 6 6 6
Wind_Direction
286 290 248 213 212 222 232 223 223 203 209 217 214 218 224 220 221 100 66 147 148 151 153 153 151 151 150 147 143 141 141 138 135 132 131 130 129 127 122 118 116 115 113 112 109 107 104 102 100
279 262 221 216 224 222 225 220 217 214 200 184 204 221 224 224 251 45 100 150 156 152 155 158 151 153 150 147 144 141 142 142 138 135 133 131 130 128 126 123 120 115 114 113 111 108 104 102 100
244 238 224 213 223 227 223 208 218 210 198 201 203 223 235 221 195 129 88 157 158 154 156 150 152 154 151 148 146 144 141 143 141 138 135 133 130 130 130 126 121 116 113 111 109 108 105 103 100
224 202 219 227 225 228 237 213 201 201 200 213 216 208 202 207 342 80 128 162 158 156 155 148 154 154 151 148 146 144 143 139 141 139 137 135 133 129 127 124 120 116 113 111 109 106 104 102 101
229 218 213 225 231 228 230 235 222 220 212 205 217 228 202 161 40 122 154 165 161 157 154 151 153 153 152 150 148 146 145 141 139 140 136 132 130 128 123 123 121 118 116 113 112 109 107 105 102
208 220 221 225 228 225 221 223 228 231 226 219 227 234 217 146 138 147 165 169 163 158 156 153 151 149 151 151 151 147 144 141 135 135 136 133 130 126 123 121 121 121 119 117 116 113 110 109 106
220 220 228 229 230 227 219 219 228 229 231 224 234 241 216 188 147 163 171 167 162 158 157 157 157 149 144 145 147 144 140 138 134 130 134 132 130 128 126 121 118 119 121 120 117 112 111 111 109
238 232 230 228 230 231 221 218 236 240 241 237 231 238 228 186 166 168 167 163 156 158 160 161 160 157 155 149 136 135 134 134 128 123 119 124 126 127 126 126 120 118 119 120 118 116 113 111 109
235 230 228 225 227 231 219 223 231 248 238 233 237 265 306 153 171 176 170 167 166 164 160 160 161 159 154 150 141 137 130 129 130 125 121 136 145 141 136 119 118 120 116 117 119 118 115 117 112
222 232 234 238 238 239 230 234 229 227 232 236 233 236 216 196 191 189 187 184 181 178 168 165 163 158 154 151 153 157 155 154 158 152 151 148 144 138 132 111 108 113 113 111 106 117 129 145 131
231 240 247 252 253 247 243 244 238 235 240 242 243 235 213 210 205 204 201 196 190 184 170 169 167 164 159 158 161 159 160 161 163 160 155 149 141 144 144 137 132 135 140 135 129 138 137 134 119
242 251 258 261 261 257 251 247 242 241 251 267 256 233 214 212 211 211 209 201 196 188 180 171 166 167 165 163 165 168 165 168 167 166 161 158 152 152 150 151 147 150 146 140 141 134 124 130 129
245 259 260 270 267 262 260 249 253 251 256 259 245 221 216 220 219 215 212 205 197 191 184 179 173 170 167 164 169 172 170 171 167 167 168 167 162 157 154 152 151 150 146 149 143 140 131 135 134
249 267 276 271 258 256 257 261 251 250 251 241 230 223 222 224 224 216 208 210 202 192 186 186 178 178 171 168 173 174 171 168 171 170 167 170 164 159 158 151 154 150 150 147 147 139 136 135 125
250 264 269 262 254 248 261 259 243 248 244 241 233 230 227 230 225 222 213 209 207 191 183 187 184 181 174 170 170 170 169 171 171 168 168 168 164 163 160 156 160 153 149 148 143 139 143 130 125
238 245 256 265 258 242 245 257 253 245 243 245 241 235 231 229 226 228 224 214 208 186 180 181 188 182 174 169 167 164 168 169 168 164 166 169 169 170 165 162 160 159 156 152 147 150 148 141 139
224 250 262 271 250 249 242 260 266 259 245 245 242 238 233 227 225 228 228 220 209 188 176 172 182 182 170 166 164 157 159 165 166 165 168 169 169 177 174 165 159 163 160 157 152 153 149 146 138
254 262 259 267 261 259 256 261 269 259 249 244 243 241 233 228 226 221 224 214 202 183 170 162 169 174 163 162 154 145 152 160 168 169 172 171 167 172 169 169 167 167 164 160 159 147 135 137 134
259 265 269 275 286 266 259 264 266 258 246 243 239 236 233 234 238 218 211 196 168 168 165 162 163 168 162 166 167 169 173 167 167 171 174 177 172 171 168 166 170 177 174 168 160 150 144 133 139
257 267 277 281 285 273 266 266 266 258 243 241 236 231 233 232 230 221 205 189 182 172 159 167 171 180 181 181 182 183 170 173 166 166 172 177 175 173 172 169 170 172 167 166 165 163 157 143 172
265 262 271 283 298 266 270 260 245 239 237 240 244 242 236 229 230 223 204 193 191 183 173 186 183 187 186 170 164 149 143 152 164 172 175 179 178 175 174 176 173 172 174 173 175 178 176 166 165
271 272 271 268 275 272 262 268 248 242 236 238 242 244 242 234 221 215 204 196 204 197 182 193 185 187 186 170 179 176 183 188 191 184 182 178 181 178 176 178 180 181 183 179 178 184 179 175 172
276 285 269 259 261 271 248 253 263 222 237 239 238 246 241 232 212 218 209 188 197 188 181 196 183 183 185 183 188 194 194 196 185 175 178 177 177 179 177 179 183 185 184 182 179 179 182 183 187
283 268 257 237 240 248 241 245 265 222 237 242 237 244 239 230 215 218 205 142 152 150 166 185 183 183 189 195 198 206 197 189 183 187 182 180 175 177 179 182 187 190 187 182 182 185 184 184 188
296 273 255 225 218 246 221 242 260 276 263 255 252 248 240 227 212 212 194 174 172 161 164 183 187 185 196 205 208 215 208 198 194 192 189 185 182 187 186 183 188 190 190 187 182 185 189 191 192
268 260 273 279 269 287 230 246 270 348 319 291 282 263 240 236 219 213 205 192 188 178 176 180 189 190 195 208 222 223 214 207 204 200 194 194 194 194 190 186 187 187 184 185 183 182 185 190 193
236 236 304 289 293 265 240 260 274 338 347 343 324 314 303 273 254 233 206 194 190 186 190 192 190 192 201 212 221 225 216 216 211 201 199 195 191 186 188 188 185 182 181 184 183 183 183 184 189
297 283 207 233 267 263 253 258 279 344 340 337 333 326 327 322 312 261 215 201 204 221 208 191 191 198 202 210 219 226 223 221 214 198 195 194 188 182 184 187 185 181 181 183 185 179 179 181 182
209 199 239 247 277 280 275 279 25 323 325 323 327 328 325 323 315 291 248 208 194 345 302 184 180 208 219 222 221 223 220 216 207 201 197 193 186 183 185 183 185 186 185 183 182 182 180 184 183
269 253 227 243 242 258 281 306 46 352 344 336 334 337 332 333 333 337 12 67 56 30 11 340 190 204 238 240 226 219 210 202 201 200 196 188 184 184 184 181 186 190 188 185 184 184 186 188 188